Location: Buckeye Ditch
(40.9104°N, 122.9517°W)
Time: 13:22:58
(UTC+00:00)

Tiros 1 despin weight - Pass Details

Date: 25 May 2025
Orbit: 563 x 601 km, 48.2° (Epoch: 22 June)

Event Time Altitude Azimuth Distance (km) Brightness Sun altitude
Rises 11:52:58 0° 291° (WNW) 2,820 ? -9.1°
Reaches altitude 10° 11:55:27 10° 301° (WNW) 1,925 ? -8.8°
Maximum altitude 11:59:26 32° 5° (N) 1,030 ? -8.2°
Drops below altitude 10° 12:03:27 10° 70° (ENE) 1,938 ? -7.6°
Sets 12:05:56 0° 80° (E) 2,843 ? -7.2°
